Time,TemperatureF,DewpointF,PressureIn,WindDirection,WindDirectionDegrees,WindSpeedMPH,WindSpeedGustMPH,Humidity,HourlyPrecipIn,Conditions,Clouds,dailyrainin,SoftwareType,DateUTC
2013-08-24 00:03:00,60.8,51.0,30.02,NNE,26,0.0,-999.0,71,-99.99,,,0.00,weatherlink.com 1.10,2013-08-24 04:03:00,
2013-08-24 00:18:00,60.0,52.0,30.03,NNE,26,0.0,-999.0,74,-99.99,,,0.00,weatherlink.com 1.10,2013-08-24 04:18:00,
2013-08-24 00:34:00,59.0,51.0,30.04,NNE,26,0.0,-999.0,76,-99.99,,,0.00,weatherlink.com 1.10,2013-08-24 04:34:00,
2013-08-24 00:48:00,58.5,51.0,30.04,NNE,26,0.0,-999.0,77,-99.99,,,0.00,weatherlink.com 1.10,2013-08-24 04:48:00,
2013-08-24 01:03:00,57.8,51.0,30.05,NNE,26,0.0,-999.0,79,-99.99,,,0.00,weatherlink.com 1.10,2013-08-24 05:03:00,
2013-08-24 01:18:00,57.3,51.0,30.05,NNE,24,0.0,-999.0,80,-99.99,,,0.00,weatherlink.com 1.10,2013-08-24 05:18:00,
2013-08-24 01:33:00,57.1,51.0,30.05,North,360,0.0,-999.0,80,-99.99,,,0.00,weatherlink.com 1.10,2013-08-24 05:33:00,
2013-08-24 01:48:00,56.7,51.0,30.05,North,360,0.0,-999.0,81,-99.99,,,0.00,weatherlink.com 1.10,2013-08-24 05:48:00,
2013-08-24 02:03:00,56.3,51.0,30.06,North,360,0.0,-999.0,82,-99.99,,,0.00,weatherlink.com 1.10,2013-08-24 06:03:00,
2013-08-24 02:18:00,55.9,51.0,30.06,WNW,290,0.0,-999.0,82,-99.99,,,0.00,weatherlink.com 1.10,2013-08-24 06:18:00,
2013-08-24 02:33:00,55.8,51.0,30.06,WNW,292,0.0,-999.0,83,-99.99,,,0.00,weatherlink.com 1.10,2013-08-24 06:33:00,
2013-08-24 02:48:00,55.5,50.0,30.07,WNW,299,0.0,-999.0,83,-99.99,,,0.00,weatherlink.com 1.10,2013-08-24 06:48:00,
2013-08-24 03:03:00,55.0,50.0,30.07,NW,315,0.0,-999.0,83,-99.99,,,0.00,weatherlink.com 1.10,2013-08-24 07:03:00,
2013-08-24 03:18:00,54.8,50.0,30.07,WNW,284,0.0,-999.0,84,-99.99,,,0.00,weatherlink.com 1.10,2013-08-24 07:18:00,
2013-08-24 03:33:00,54.6,50.0,30.08,NNW,328,1.0,-999.0,84,-99.99,,,0.00,weatherlink.com 1.10,2013-08-24 07:33:00,
2013-08-24 03:48:00,54.4,50.0,30.08,NW,325,0.0,-999.0,85,-99.99,,,0.00,weatherlink.com 1.10,2013-08-24 07:48:00,
2013-08-24 04:03:00,54.0,50.0,30.09,NW,324,0.0,-999.0,86,-99.99,,,0.00,weatherlink.com 1.10,2013-08-24 08:03:00,
2013-08-24 04:18:00,53.9,50.0,30.09,WNW,300,0.0,-999.0,86,-99.99,,,0.00,weatherlink.com 1.10,2013-08-24 08:18:00,
2013-08-24 04:33:00,53.7,50.0,30.10,WNW,295,0.0,-999.0,86,-99.99,,,0.00,weatherlink.com 1.10,2013-08-24 08:33:00,
2013-08-24 04:48:00,53.4,49.0,30.10,West,270,0.0,-999.0,86,-99.99,,,0.00,weatherlink.com 1.10,2013-08-24 08:48:00,
2013-08-24 05:03:00,53.1,49.0,30.11,West,270,0.0,-999.0,87,-99.99,,,0.00,weatherlink.com 1.10,2013-08-24 09:03:00,
2013-08-24 05:18:00,53.0,49.0,30.12,West,270,0.0,-999.0,87,-99.99,,,0.00,weatherlink.com 1.10,2013-08-24 09:18:00,
2013-08-24 05:33:00,52.7,49.0,30.13,West,270,0.0,-999.0,88,-99.99,,,0.00,weatherlink.com 1.10,2013-08-24 09:33:00,
2013-08-24 05:48:00,52.3,49.0,30.13,West,270,0.0,-999.0,88,-99.99,,,0.00,weatherlink.com 1.10,2013-08-24 09:48:00,
2013-08-24 06:03:00,52.0,49.0,30.14,West,270,0.0,-999.0,88,-99.99,,,0.00,weatherlink.com 1.10,2013-08-24 10:03:00,
2013-08-24 06:18:00,51.6,49.0,30.15,West,270,0.0,-999.0,89,-99.99,,,0.00,weatherlink.com 1.10,2013-08-24 10:18:00,
2013-08-24 06:33:00,51.9,49.0,30.15,West,270,0.0,-999.0,89,-99.99,,,0.00,weatherlink.com 1.10,2013-08-24 10:33:00,
2013-08-24 06:48:00,52.5,49.0,30.16,West,273,0.0,-999.0,88,-99.99,,,0.00,weatherlink.com 1.10,2013-08-24 10:48:00,
2013-08-24 07:03:00,53.8,50.0,30.16,WNW,285,0.0,-999.0,86,-99.99,,,0.00,weatherlink.com 1.10,2013-08-24 11:03:00,
2013-08-24 07:18:00,55.4,50.0,30.16,North,360,0.0,-999.0,83,-99.99,,,0.00,weatherlink.com 1.10,2013-08-24 11:18:00,
2013-08-24 07:33:00,56.8,51.0,30.17,North,360,0.0,-999.0,81,-99.99,,,0.00,weatherlink.com 1.10,2013-08-24 11:33:00,
2013-08-24 07:48:00,58.4,52.0,30.18,North,360,0.0,-999.0,79,-99.99,,,0.00,weatherlink.com 1.10,2013-08-24 11:48:00,
2013-08-24 08:03:00,60.0,53.0,30.18,North,355,3.0,-999.0,79,-99.99,,,0.00,weatherlink.com 1.10,2013-08-24 12:03:00,
2013-08-24 08:18:00,62.0,54.0,30.18,NE,42,0.0,-999.0,74,-99.99,,,0.00,weatherlink.com 1.10,2013-08-24 12:18:00,
2013-08-24 08:33:00,63.8,54.0,30.19,East,98,0.0,-999.0,70,-99.99,,,0.00,weatherlink.com 1.10,2013-08-24 12:33:00,
2013-08-24 08:48:00,65.3,55.0,30.19,North,10,0.0,-999.0,70,-99.99,,,0.00,weatherlink.com 1.10,2013-08-24 12:48:00,
2013-08-24 09:03:00,66.2,54.0,30.19,ENE,69,0.0,-999.0,66,-99.99,,,0.00,weatherlink.com 1.10,2013-08-24 13:03:00,
2013-08-24 09:18:00,67.5,55.0,30.19,NE,50,0.0,-999.0,64,-99.99,,,0.00,weatherlink.com 1.10,2013-08-24 13:18:00,
2013-08-24 09:33:00,68.4,55.0,30.19,North,9,0.0,-999.0,63,-99.99,,,0.00,weatherlink.com 1.10,2013-08-24 13:33:00,
2013-08-24 09:48:00,69.1,54.0,30.20,NNE,21,0.0,-999.0,59,-99.99,,,0.00,weatherlink.com 1.10,2013-08-24 13:48:00,
2013-08-24 10:03:00,69.6,52.0,30.20,East,96,0.0,-999.0,54,-99.99,,,0.00,weatherlink.com 1.10,2013-08-24 14:03:00,
2013-08-24 10:18:00,70.1,53.0,30.20,WNW,298,0.0,-999.0,54,-99.99,,,0.00,weatherlink.com 1.10,2013-08-24 14:18:00,
2013-08-24 10:33:00,70.4,50.0,30.20,ENE,57,0.0,-999.0,48,-99.99,,,0.00,weatherlink.com 1.10,2013-08-24 14:33:00,
2013-08-24 10:48:00,71.0,47.0,30.20,NE,47,0.0,-999.0,43,-99.99,,,0.00,weatherlink.com 1.10,2013-08-24 14:48:00,
2013-08-24 11:03:00,71.2,50.0,30.20,East,82,0.0,-999.0,47,-99.99,,,0.00,weatherlink.com 1.10,2013-08-24 15:03:00,
2013-08-24 11:18:00,71.8,49.0,30.20,ENE,76,0.0,-999.0,45,-99.99,,,0.00,weatherlink.com 1.10,2013-08-24 15:18:00,
2013-08-24 11:33:00,71.7,49.0,30.19,NE,34,0.0,-999.0,44,-99.99,,,0.00,weatherlink.com 1.10,2013-08-24 15:33:00,
2013-08-24 11:48:00,72.2,48.0,30.19,SE,142,0.0,-999.0,43,-99.99,,,0.00,weatherlink.com 1.10,2013-08-24 15:48:00,
2013-08-24 12:03:00,72.1,49.0,30.19,SE,132,0.0,-999.0,44,-99.99,,,0.00,weatherlink.com 1.10,2013-08-24 16:03:00,
2013-08-24 12:18:00,72.2,48.0,30.19,NW,309,0.0,-999.0,43,-99.99,,,0.00,weatherlink.com 1.10,2013-08-24 16:18:00,
2013-08-24 12:33:00,72.5,50.0,30.19,WSW,258,0.0,-999.0,46,-99.99,,,0.00,weatherlink.com 1.10,2013-08-24 16:33:00,
2013-08-24 12:48:00,72.3,48.0,30.19,SSE,161,0.0,-999.0,43,-99.99,,,0.00,weatherlink.com 1.10,2013-08-24 16:48:00,
2013-08-24 13:03:00,72.8,50.0,30.19,East,84,0.0,-999.0,45,-99.99,,,0.00,weatherlink.com 1.10,2013-08-24 17:03:00,
2013-08-24 13:18:00,72.5,48.0,30.19,West,263,0.0,-999.0,42,-99.99,,,0.00,weatherlink.com 1.10,2013-08-24 17:18:00,
2013-08-24 13:33:00,72.8,47.0,30.19,North,360,0.0,-999.0,40,-99.99,,,0.00,weatherlink.com 1.10,2013-08-24 17:33:00,
2013-08-24 13:48:00,72.9,48.0,30.19,West,269,0.0,-999.0,41,-99.99,,,0.00,weatherlink.com 1.10,2013-08-24 17:48:00,
2013-08-24 14:03:00,73.3,47.0,30.19,North,360,0.0,-999.0,39,-99.99,,,0.00,weatherlink.com 1.10,2013-08-24 18:03:00,
2013-08-24 14:18:00,73.3,49.0,30.19,North,360,0.0,-999.0,42,-99.99,,,0.00,weatherlink.com 1.10,2013-08-24 18:18:00,
2013-08-24 14:33:00,73.3,49.0,30.18,North,360,0.0,-999.0,42,-99.99,,,0.00,weatherlink.com 1.10,2013-08-24 18:33:00,
2013-08-24 14:48:00,73.2,49.0,30.18,North,360,0.0,-999.0,42,-99.99,,,0.00,weatherlink.com 1.10,2013-08-24 18:48:00,
2013-08-24 15:03:00,73.4,46.0,30.18,North,360,0.0,-999.0,38,-99.99,,,0.00,weatherlink.com 1.10,2013-08-24 19:03:00,
2013-08-24 15:18:00,73.6,48.0,30.18,North,360,0.0,-999.0,40,-99.99,,,0.00,weatherlink.com 1.10,2013-08-24 19:18:00,
2013-08-24 15:33:00,73.3,48.0,30.18,North,360,0.0,-999.0,41,-99.99,,,0.00,weatherlink.com 1.10,2013-08-24 19:33:00,
2013-08-24 15:48:00,73.5,49.0,30.18,North,360,0.0,-999.0,42,-99.99,,,0.00,weatherlink.com 1.10,2013-08-24 19:48:00,
2013-08-24 16:03:00,73.8,49.0,30.18,North,360,0.0,-999.0,41,-99.99,,,0.00,weatherlink.com 1.10,2013-08-24 20:03:00,
2013-08-24 16:18:00,73.6,48.0,30.17,North,360,0.0,-999.0,41,-99.99,,,0.00,weatherlink.com 1.10,2013-08-24 20:18:00,
2013-08-24 16:33:00,73.2,48.0,30.17,NW,314,0.0,-999.0,41,-99.99,,,0.00,weatherlink.com 1.10,2013-08-24 20:33:00,
2013-08-24 16:48:00,72.8,48.0,30.17,North,360,0.0,-999.0,42,-99.99,,,0.00,weatherlink.com 1.10,2013-08-24 20:48:00,
2013-08-24 17:03:00,71.8,49.0,30.17,North,360,0.0,-999.0,44,-99.99,,,0.00,weatherlink.com 1.10,2013-08-24 21:03:00,
2013-08-24 17:18:00,70.8,49.0,30.17,SE,133,0.0,-999.0,46,-99.99,,,0.00,weatherlink.com 1.10,2013-08-24 21:18:00,
2013-08-24 17:33:00,69.7,48.0,30.17,SE,130,0.0,-999.0,46,-99.99,,,0.00,weatherlink.com 1.10,2013-08-24 21:33:00,
2013-08-24 17:48:00,68.9,50.0,30.16,SE,130,0.0,-999.0,51,-99.99,,,0.00,weatherlink.com 1.10,2013-08-24 21:48:00,
2013-08-24 18:03:00,68.2,48.0,30.16,ESE,112,0.0,-999.0,49,-99.99,,,0.00,weatherlink.com 1.10,2013-08-24 22:03:00,
2013-08-24 18:18:00,67.3,50.0,30.17,ESE,113,0.0,-999.0,54,-99.99,,,0.00,weatherlink.com 1.10,2013-08-24 22:18:00,
2013-08-24 18:33:00,66.3,49.0,30.16,ESE,113,0.0,-999.0,55,-99.99,,,0.00,weatherlink.com 1.10,2013-08-24 22:33:00,
2013-08-24 18:48:00,65.2,50.0,30.16,ESE,113,0.0,-999.0,58,-99.99,,,0.00,weatherlink.com 1.10,2013-08-24 22:48:00,
2013-08-24 19:03:00,64.4,50.0,30.16,ESE,113,0.0,-999.0,60,-99.99,,,0.00,weatherlink.com 1.10,2013-08-24 23:03:00,
2013-08-24 19:18:00,63.4,50.0,30.17,ESE,113,0.0,-999.0,62,-99.99,,,0.00,weatherlink.com 1.10,2013-08-24 23:18:00,
2013-08-24 19:33:00,62.5,49.0,30.17,ESE,113,0.0,-999.0,62,-99.99,,,0.00,weatherlink.com 1.10,2013-08-24 23:33:00,
2013-08-24 19:48:00,61.9,50.0,30.17,ESE,113,0.0,-999.0,66,-99.99,,,0.00,weatherlink.com 1.10,2013-08-24 23:48:00,
2013-08-24 20:03:00,61.0,51.0,30.18,ESE,113,0.0,-999.0,69,-99.99,,,0.00,weatherlink.com 1.10,2013-08-25 00:03:00,
2013-08-24 20:18:00,60.2,51.0,30.19,ESE,113,0.0,-999.0,72,-99.99,,,0.00,weatherlink.com 1.10,2013-08-25 00:18:00,
2013-08-24 20:33:00,59.5,51.0,30.19,ESE,113,0.0,-999.0,73,-99.99,,,0.00,weatherlink.com 1.10,2013-08-25 00:33:00,
2013-08-24 20:48:00,58.5,51.0,30.20,ESE,113,0.0,-999.0,75,-99.99,,,0.00,weatherlink.com 1.10,2013-08-25 00:48:00,
2013-08-24 21:03:00,57.7,51.0,30.20,ESE,113,0.0,-999.0,78,-99.99,,,0.00,weatherlink.com 1.10,2013-08-25 01:03:00,
2013-08-24 21:18:00,57.5,51.0,30.20,ESE,113,0.0,-999.0,78,-99.99,,,0.00,weatherlink.com 1.10,2013-08-25 01:18:00,
2013-08-24 21:33:00,57.2,51.0,30.20,ESE,113,0.0,-999.0,79,-99.99,,,0.00,weatherlink.com 1.10,2013-08-25 01:33:00,
2013-08-24 21:48:00,57.0,51.0,30.20,ESE,113,0.0,-999.0,79,-99.99,,,0.00,weatherlink.com 1.10,2013-08-25 01:48:00,
2013-08-24 22:03:00,56.3,50.0,30.20,ESE,113,0.0,-999.0,80,-99.99,,,0.00,weatherlink.com 1.10,2013-08-25 02:03:00,
2013-08-24 22:18:00,56.0,50.0,30.20,ESE,113,0.0,-999.0,81,-99.99,,,0.00,weatherlink.com 1.10,2013-08-25 02:18:00,
2013-08-24 22:33:00,55.4,50.0,30.20,ESE,113,0.0,-999.0,82,-99.99,,,0.00,weatherlink.com 1.10,2013-08-25 02:33:00,
2013-08-24 22:48:00,55.0,50.0,30.20,ESE,113,0.0,-999.0,84,-99.99,,,0.00,weatherlink.com 1.10,2013-08-25 02:48:00,
2013-08-24 23:03:00,54.7,50.0,30.20,ESE,113,0.0,-999.0,84,-99.99,,,0.00,weatherlink.com 1.10,2013-08-25 03:03:00,
2013-08-24 23:18:00,54.7,50.0,30.20,ESE,113,0.0,-999.0,83,-99.99,,,0.00,weatherlink.com 1.10,2013-08-25 03:18:00,
2013-08-24 23:33:00,54.1,49.0,30.21,ESE,113,0.0,-999.0,84,-99.99,,,0.00,weatherlink.com 1.10,2013-08-25 03:33:00,
2013-08-24 23:48:00,54.0,49.0,30.21,ESE,113,0.0,-999.0,84,-99.99,,,0.00,weatherlink.com 1.10,2013-08-25 03:48:00,